Location: Daerah Kuala Lumpur
(3.1167°N, 101.6833°E)
Time: 14:19:32
(UTC+00:00)

BlueWalker 3 - Pass Details

Date: 15 February 2026
Orbit: 451 x 458 km, 53.2° (Epoch: 6 March)

Event Time Altitude Azimuth Distance (km) Brightness Sun altitude
Rises 22:45:05 0° 181° (S) 2,471 5.6 -11.0°
Reaches altitude 10° 22:48:14 10° 151° (SSE) 1,595 5.1 -10.2°
Maximum altitude 22:49:53 13° 124° (SE) 1,437 5.4 -9.8°
Drops below altitude 10° 22:51:31 10° 96° (E) 1,592 6.1 -9.4°
Sets 22:54:39 0° 67° (ENE) 2,462 6.4 -8.6°
